Regional Weather Roundup
Issued by NWS Wakefield, VA

Home | Current Version | Previous Version | Graphics & Text | Print | Product List | Glossary On
Versions: 1 2 3 4 5 6 7 8 9 10 11 12 13 14 15 16 17 18 19 20 21 22 23 24 25 26 27 28 29 30 31 32 33 34 35 36 37 38 39 40 41 42 43 44 45 46 47 48 49 50
411
ASUS41 KAKQ 270815
RWRAKQ

REGIONAL WEATHER ROUNDUP
NATIONAL WEATHER SERVICE WAKEFIELD VA
400 AM EDT THU APR 27 2017

Note: "fair" indicates few or no clouds below 12,000 feet with no
significant weather and/or obstructions to visibility. * = Denotes
station may not report precipitation (e.g., rain,snow,etc.),
thunder or fog.

VAZ042-051-052>054-056-270900-
NORTHERN VIRGINIA

CITY           SKY/WX    TMP DP  RH WIND       PRES   REMARKS
WASH NATIONAL  PTCLDY    60  58  92 CALM      29.82F
DULLES         PTCLDY    55  53  93 CALM      29.81S
FORT BELVOIR   CLEAR     54  53  97 CALM      29.81S
QUANTICO       CLEAR     61  60  97 SE3       29.81F
FREDERICKSBRG* CLEAR     56  56 100 CALM      29.80S
STAFFORD*      FOG       54  54 100 CALM      29.84F VSB 3/4
WARRENTON      CLOUDY    60  57  89 CALM      29.80S
CULPEPER*      CLOUDY    58  58 100 CALM      29.81F FOG
MANASSAS*        N/A     56  55  97 CALM      29.81F FOG
LEESBURG*      CLOUDY    59  59 100 CALM      29.83S
WINCHESTER     CLEAR     50  50 100 CALM      29.79S FOG
FRONT ROYAL*   PTSUNNY   54  54 100 CALM      29.77F VSB 1/2
LURAY*         FOG       54  54 100 CALM      29.79S VSB 1/2
$$

VAZ048-049-060>072-079>083-270900-
CENTRAL AND SOUTH CENTRAL VIRGINIA

CITY           SKY/WX    TMP DP  RH WIND       PRES   REMARKS
RICHMOND       CLEAR     60  60 100 SE3       29.81S
CHESTERFIELD*  FAIR     N/A N/A N/A CALM      29.82S
PETERSBURG*    CLEAR     60  59  97 CALM      29.82S
HANOVER        CLEAR     57  55  93 CALM      29.82S FOG
TAPPAHANNOCK*  CLEAR     59  59 100 S3        29.82S
QUINTON*       FAIR      57  57 100 MISG      29.81S FOG
CHARLOTTSVILLE CLEAR     60  58  92 CALM      29.79F
GORDONSVILLE*  MOSUNNY   55  55 100 CALM      29.79F
ORANGE*        FOG       54  54 100 CALM      29.80S VSB 1/4
LOUISA*        FOG       57  57 100 CALM      29.79F VSB 1/2
BUMPASS*       FAIR      58  58 100 CALM      29.80S
FARMVILLE*     FOG       59  59 100 CALM      29.79S VSB 1
CREWE*         FAIR      58  58 100 CALM      29.81S
FORT PICKETT*  FAIR     N/A N/A N/A SE6       29.81S
CHASE CITY*    FAIR      62  61  94 CALM      29.82S
CLARKSVILLE*   FAIR      63  63 100 S8        29.82R
SOUTH HILL*    CLEAR     61  61 100 S5        29.88R
LAWRENCEVILLE* FAIR      62  61  97 CALM      29.82S
EMPORIA*         N/A     61  61 100 SE3       29.84S
$$

VAZ088>098-270900-
SOUTHEAST VIRGINIA

CITY           SKY/WX    TMP DP  RH WIND       PRES   REMARKS
NORFOLK        CLEAR     64  62  93 S6        29.83S
VIRGINIA BEACH CLEAR     64  61  90 S6        29.83S
NORFOLK NAVAL  PTCLDY    66  63  90 S7        29.84S
WEST POINT*    CLEAR     59  58  97 CALM      29.83S
SALUDA*        FAIR      57  57 100 CALM      29.82S
NEWPORT NEWS   CLEAR     63  61  93 S5        29.82F
LANGLEY AFB    CLEAR     64  63  98 S6        29.82S
FORT EUSTIS    NOT AVBL
WILLIAMSBURG*  CLEAR     66  64  94 CALM      29.83S
HR EXEC AP*    FAIR      64  61  88 S5        29.82S
FRANKLIN*      MOCLDY    63  62  96 S6        29.84S
US460-WAKEFLD  CLEAR     62  62 100 CALM      29.82F
$$

VAZ020-022-025-037-045-270900-
WEST CENTRAL AND SOUTHWEST VIRGINIA

CITY           SKY/WX    TMP DP  RH WIND       PRES   REMARKS
STAUNTON*      CLEAR     54  54  98 SW3       29.82S
WAYNESBORO*    SUNNY     58  58 100 CALM      29.81S
HOT SPRINGS VA CLEAR     59  54  82 SW10      29.90S
LYNCHBURG      CLEAR     58  57  97 CALM      29.82S
DANVILLE       CLEAR     62  61  96 S5        29.81S
SOUTH BOSTON*  FAIR      62  60  95 CALM      29.82R
MARTINSVILLE     N/A     53  52  97 CALM      29.84S FOG
ROANOKE        CLEAR     59  58  96 NW3       29.83R
BLACKSBURG     CLEAR     58  55  91 CALM      29.87S
DUBLIN*        CLEAR     58  52  79 CALM      29.85S
MARION*        CLEAR     65  55  70 CALM      29.86F
HILLSVILLE*    CLEAR     62  57  85 S7        29.84F
RICHLANDS*     FAIR      65  53  65 S8        29.81F
WISE*          CLEAR     63  52  67 S8        29.79F
ABINGDON*      CLEAR     60  55  83 CALM      29.80F
$$

MDZ021>025-VAZ099-100-270900-
SOUTHERN MARYLAND AND THE DELMARVA PENINSULA

CITY           SKY/WX    TMP DP  RH WIND       PRES   REMARKS
PATUXENT RIVER CLEAR     59  59 100 SE6       29.81F
BAY BRIDGE APT CLEAR     57  57 100 E5        29.83S FOG
LEONARDTOWN    CLEAR     57  55  94 E3        29.83S
DOVER          PTCLDY    57  57 100 S3        29.83F FOG
GEORGETOWN     FOG       56  55  97 CALM      29.86S VSB 1/2
EASTON         CLOUDY    58  56  94 SE5       29.87S FOG
CAMBRIDGE      PTCLDY    55  55 100 SE5       29.83S FOG
SALISBURY      PTCLDY    54  54 100 E3        29.84F
OCEAN CITY     PTCLDY    53  51  93 CALM      29.86S FOG
WALLOPS ISLAND MOCLDY    56  56 100 CALM      29.85S
ACCOMACK*      CLEAR     58  53  83 SE6       29.84S
$$

NCZ012>017-030>032-270900-
NORTH CENTRAL AND EASTERN NORTH CAROLINA

CITY           SKY/WX    TMP DP  RH WIND       PRES   REMARKS
ROANOKE RAPIDS FAIR      63  63 100 S7        29.84R
RALEIGH        PTCLDY    65  59  81 SW12      29.85S
ELIZABETH CITY CLOUDY    67  66  97 S10       29.86R
AHOSKIE*         N/A     65  63  93 S5        29.85R
EDENTON*       CLOUDY    69  64  84 SW5       29.87S
CURRITUCK*     PTCLDY    65  65 100 S3        29.86S
KILL DEVIL HLS MOCLDY    68  67  98 CALM      29.86S
MANTEO         MOCLDY    67  64  90 SW10      29.87S
CAPE HATTERAS  CLEAR     70  66  87 SW9       29.89S FOG
TARBORO*       NOT AVBL
GOLDSBORO      CLEAR     67  62  86 SW6       29.86R
WASHINGTON     CLEAR     65  60  85 SW3       29.88R
GREENVILLE     NOT AVBL
NEW BERN       CLEAR     64  63  96 SW6       29.89S
WILMINGTON     CLEAR     65  63  93 S3        29.88F
$$

VAZ048-270900-
ELSEWHERE

CITY           SKY/WX    TMP DP  RH WIND       PRES   REMARKS
HARRISBURG PA  FOG       53  53 100 SE5       29.82S VSB 1/2
BALTIMORE      PTCLDY    53  53 100 CALM      29.82F FOG
ANNAPOLIS      CLEAR     59  58  96 SE3       29.82S FOG
ANDREWS AFB    CLEAR     57  56  96 SE3       29.81S
PHILADELPHIA   CLOUDY    61  57  87 CALM      29.84F
HENDERSON NC   CLEAR     61  60  94 SW8       29.84R
GREENSBORO     PTCLDY    63  60  90 S8        29.83R
ROCKY MOUNT    CLEAR     65  61  87 S9        29.85S
$$

VAZ100-270900-
MARINE

STATION/POSITION TIME  TEMP    WIND        PRES    WAVE   SWELL
                       AIR SEA DIR/SP/G            HT/PER HT/PER
                 (UTC) (F)     (DEG/KT/KT) (MB)    (FT/S) (FT/S)
CAPE MAY NJ      0748   55 55  150/  2/  3 1010.7R
LEWES DE         0748   56 55  170/  3/  4 1010.7F
15NM E FENWICK I 0750   52 51  180/  4/  4 1011.9S   5/10   5/10
OCEAN-CITY-INLET 0748   54 54  170/  3/  5 1011.4F
WACHAPREAGUE VA  0742   58 63  160/  3/  4 1010.0F
THOMAS POINT MD  0800   58 57  120/  6/  6   N/A
GOOSES REEF MD   0800   59 53  160/  6/  6 1010.5
COVE POINT MD    0742   59     160/ 13/ 14 1010.2F
SOLOMONS ISLAND  0742   59 59  110/  6/  8   N/A
BISHOPS HEAD MD  0748   61 61  110/  8/  9 1010.3F
PINEY POINT MD   0748          140/ 10/ 11   N/A
POTOMAC MD       0800   60 60  160/  8/  8 1008.8    1/ 2
CAMBRIDGE MD     0748   57 62                N/A
LEWISETTA VA     0742   61 62  140/  4/  5 1009.2F
RAPPAHANNOCK LGT 0748          130/ 10/ 10 1010.5F
STINGRAY PT      0750   62     180/  6/  8 1009.8F
YORK RVR RNG VA  0742   63     200/  7/  8 1009.1F
YORKTOWN VA      0742   64 63  210/  6/  8 1009.3F
JAMESTOWN VA     0800   65 68  160/  4/  6   N/A
DOMINION TERM VA 0742   65     150/  2/  3 1010.0F
KIPTOPEKE VA     0748      61  160/  7/  8   N/A
CHES BAY BRIDGE  0742   65 62  220/  8/ 10 1009.8F
CAPE HENRY VA    0742   65     200/  9/ 12   N/A
WILLOUBY STN VA  0742   67     200/  9/ 11 1010.9S
S CRANEY ISL VA  0742   65     190/  5/  7 1009.9F
CAPE HENRY BUOY  0742      56                N/A     4/ 9   2/11
1ST LANDING BUOY 0800   64 61              1010.3    1/ 5
CAPE CHARLES BUO 0751      56                N/A     4/ 9   2/11
64NM E OF VA BCH 0750   59 55  200/  8/ 10 1011.6F   5/10   5/10
DUCK PIER NC     0742   69 59  200/ 10/ 14 1010.6R
44100 DUCK FRF   0735      59                N/A     4/11   2/11
44056 DUCK FRF   0730      61                N/A     3/ 9   2/11
OREGON INLET NC  0742   69 67  210/ 13/ 15 1011.4S
HATTERAS NC      0742   70 69  220/  9/ 11 1011.9R
DIAMOND SHLS NC  0750   76 77  230/ 19/ 23 1011.9R   6/10   3/10
CAPE LOOKOUT NC  0800   70     220/  6/  8 1012.1R
$$




USA.gov is the U.S. government's official web portal to all federal, state and local government web resources and services.